| time (UTC) | temp F | wind direction | speed knots | gust knots | rain 1hr in | rain 24hr in | rain mn in | humidity % | barometer mb |
| 20260506034606 | 62 | 225 | 0.0 | 0.0 | 0.00 | 0.00 | 0.00 | 68 | 1014.8 |
| 20260506034101 | 63 | 248 | 0.0 | 0.0 | 0.00 | 0.00 | 0.00 | 67 | 1014.8 |
| 20260506033551 | 63 | 270 | 0.0 | 0.0 | 0.00 | 0.00 | 0.00 | 68 | 1014.6 |
| 20260506033048 | 64 | 225 | 0.0 | 0.0 | 0.00 | 0.00 | 0.00 | 66 | 1014.6 |
| 20260506031022 | 65 | 225 | 0.0 | 0.0 | 0.00 | 0.00 | 0.00 | 67 | 1014.2 |
| 20260506030516 | 66 | 225 | 0.0 | 0.0 | 0.00 | 0.00 | 0.00 | 65 | 1014.2 |
| 20260506030012 | 66 | 248 | 0.0 | 0.0 | 0.00 | 0.00 | 0.00 | 65 | 1013.9 |
| 20260506025508 | 67 | 248 | 0.0 | 0.0 | 0.00 | 0.00 | 0.00 | 64 | 1013.9 |
| 20260506025001 | 68 | 203 | 0.0 | 0.0 | 0.00 | 0.00 | 0.00 | 62 | 1013.9 |
| 20260506024453 | 68 | 203 | 0.0 | 0.0 | 0.00 | 0.00 | 0.00 | 62 | 1013.7 |
| 20260506023947 | 69 | 225 | 0.0 | 0.0 | 0.00 | 0.00 | 0.00 | 62 | 1013.7 |
| 20260506022432 | 71 | 248 | 0.0 | 0.0 | 0.00 | 0.00 | 0.00 | 57 | 1013.6 |
| 20260506021921 | 71 | 248 | 0.0 | 0.0 | 0.00 | 0.00 | 0.00 | 57 | 1013.6 |
| 20260506021419 | 72 | 23 | 0.0 | 0.0 | 0.00 | 0.00 | 0.00 | 51 | 1013.6 |
| 20260506014309 | 74 | 23 | 0.9 | 0.9 | 0.00 | 0.00 | 0.00 | 49 | 1013.4 |
| 20260506013758 | 74 | 90 | 0.9 | 0.9 | 0.00 | 0.00 | 0.00 | 50 | 1013.4 |
| 20260506013252 | 74 | 338 | 0.0 | 0.0 | 0.00 | 0.00 | 0.00 | 49 | 1013.2 |
| 20260506012747 | 75 | 90 | 0.0 | 0.0 | 0.00 | 0.00 | 0.00 | 48 | 1013.2 |
| 20260506011727 | 80 | 225 | 0.0 | 0.0 | 0.00 | 0.00 | 0.00 | 47 | 1013.2 |
| 20260505214621 | 79 | 180 | 0.9 | 0.9 | 0.00 | 0.00 | 0.00 | 48 | 1014.3 |
| 20260505213611 | 78 | 158 | 0.9 | 0.9 | 0.00 | 0.00 | 0.00 | 50 | 1014.4 |
| 20260505213106 | 79 | 113 | 0.9 | 0.9 | 0.00 | 0.00 | 0.00 | 50 | 1014.4 |
| 20260505212601 | 79 | 270 | 0.9 | 0.9 | 0.00 | 0.00 | 0.00 | 49 | 1014.4 |
| 20260505212056 | 78 | 270 | 1.7 | 1.7 | 0.00 | 0.00 | 0.00 | 51 | 1014.5 |
| 20260505210912 | 79 | 45 | 0.9 | 0.9 | 0.00 | 0.00 | 0.00 | 53 | 1014.6 |
| 20260505210407 | 78 | 68 | 0.9 | 0.9 | 0.00 | 0.00 | 0.00 | 52 | 1014.6 |
| 20260505205352 | 76 | 135 | 1.7 | 1.7 | 0.00 | 0.00 | 0.00 | 53 | 1014.8 |
| 20260505204847 | 77 | 135 | 0.9 | 0.9 | 0.00 | 0.00 | 0.00 | 52 | 1014.8 |
| 20260505204342 | 76 | 315 | 1.7 | 1.7 | 0.00 | 0.00 | 0.00 | 54 | 1014.8 |
| 20260505203845 | 77 | 180 | 0.9 | 0.9 | 0.00 | 0.00 | 0.00 | 52 | 1014.8 |
| 20260505191039 | 72 | 248 | 1.7 | 1.7 | 0.00 | 0.00 | 0.00 | 59 | 1015.6 |
| 20260505190534 | 71 | 0 | 0.9 | 0.9 | 0.00 | 0.00 | 0.00 | 59 | 1015.6 |
| 20260505185524 | 72 | 270 | 2.6 | 2.6 | 0.00 | 0.00 | 0.00 | 59 | 1015.7 |
| 20260505185017 | 70 | 158 | 0.9 | 0.9 | 0.00 | 0.00 | 0.00 | 60 | 1015.7 |
| 20260505184509 | 71 | 293 | 0.9 | 0.9 | 0.00 | 0.00 | 0.00 | 61 | 1015.8 |
| 20260505184006 | 71 | 0 | 0.9 | 0.9 | 0.00 | 0.00 | 0.00 | 63 | 1015.8 |
| 20260505183459 | 70 | 158 | 1.7 | 1.7 | 0.00 | 0.00 | 0.00 | 63 | 1015.8 |
| 20260505182444 | 70 | 225 | 1.7 | 1.7 | 0.00 | 0.00 | 0.00 | 62 | 1015.8 |
| 20260505181942 | 70 | 23 | 1.7 | 1.7 | 0.00 | 0.00 | 0.00 | 62 | 1015.8 |
| 20260505181434 | 69 | 113 | 0.9 | 0.9 | 0.00 | 0.00 | 0.00 | 62 | 1015.8 |
| 20260505180931 | 69 | 180 | 1.7 | 1.7 | 0.00 | 0.00 | 0.00 | 62 | 1015.9 |
| 20260505180425 | 68 | 293 | 0.9 | 0.9 | 0.00 | 0.00 | 0.00 | 63 | 1015.9 |
| 20260505175409 | 68 | 158 | 0.9 | 0.9 | 0.00 | 0.00 | 0.00 | 64 | 1016.0 |
| 20260505174906 | 68 | 135 | 1.7 | 1.7 | 0.00 | 0.00 | 0.00 | 63 | 1016.0 |
| 20260505174359 | 68 | 45 | 1.7 | 1.7 | 0.00 | 0.00 | 0.00 | 65 | 1016.0 |
| 20260505172841 | 67 | 0 | 0.0 | 0.0 | 0.00 | 0.00 | 0.00 | 66 | 1015.9 |
| 20260505172334 | 66 | 113 | 0.9 | 0.9 | 0.00 | 0.00 | 0.00 | 65 | 1016.1 |
| 20260505171829 | 65 | 113 | 1.7 | 1.7 | 0.00 | 0.00 | 0.00 | 66 | 1016.1 |
| 20260505171319 | 63 | 113 | 0.0 | 0.0 | 0.00 | 0.00 | 0.00 | 70 | 1016.2 |
| 20260505170815 | 62 | 68 | 0.0 | 0.0 | 0.00 | 0.00 | 0.00 | 71 | 1016.2 |
| 20260505165259 | 60 | 225 | 0.0 | 0.0 | 0.00 | 0.00 | 0.00 | 76 | 1016.4 |
| 20260505164751 | 61 | 248 | 0.0 | 0.0 | 0.00 | 0.00 | 0.00 | 76 | 1016.4 |
| 20260505164245 | 56 | 338 | 0.0 | 0.0 | 0.00 | 0.00 | 0.00 | 88 | 1016.4 |